COSMOS 2569 (703K)

Last updated on Fri Dec 05 2025 00:02:36 GMT+0000 (Coordinated Universal Time)

1 57517U 23114A 25335.69623229 -.00000016 00000+0 00000+0 0 9999 2 57517 65.1883 79.2867 0010109 287.0179 72.8703 2.13103822 18055
UTC large
Height (km)
Speed (km/s)
/
Latitude / Longitude
Inclination (degrees)
Orbital Period (minutes)
Azimuth
Elevation
Range (km)
Doppler Factor

Next 0 passes for location: London (51.5072 / 0.1276)

Sorry there are no passes over London.